Powrót do katalogu

STARLINK-36303

AktywnyŁącznośćVLEO
NORAD 68969·PAYLOAD·🇺🇸 United States

Wystrzelony May 1, 2026 z Cape Canaveral Space Force Station

Loading…

Następne Przeloty (najbliższe 24 godziny)

TLE

ŚwieżeSource: CelesTrak SupGP

Epoka: Sep 14, 2026, 23:04 UTC

1 68969C 26099U   26257.96159722  .00007949  00000+0  23493-3 0  2576
2 68969  53.1570 101.5165 0001268  87.9366   4.3516 15.34377251    14

Śledź STARLINK-36303 w czasie rzeczywistym z AllMySat

Download on the App Store